Regional Weather Roundup
Issued by NWS

Home | Current Version | Previous Version | Text Only | Print | Product List | Glossary On
Versions: 1 2 3 4 5 6 7 8 9 10 11 12 13 14 15 16 17 18 19 20 21 22 23 24 25 26 27
000
ASUS45 KTFX 200310
RWRMT
MONTANA REGIONAL WEATHER ROUNDUP
NATIONAL WEATHER SERVICE GREAT FALLS MT
900 PM MDT THU OCT 19 2017

NOTE: "FAIR" INDICATES FEW OR NO CLOUDS BELOW 12000 FEET WITH NO
SIGNIFICANT WEATHER AND/OR OBSTRUCTIONS TO VISIBILITY.

MTZ001>007-043-200400-
WEST OF THE DIVIDE

CITY           SKY/WX    TMP DP  RH WIND       PRES   REMARKS
KALISPELL      CLOUDY    50  36  58 CALM      29.47F
MISSOULA       PTCLDY    57  22  25 N7        29.50F
BUTTE          CLOUDY    60  15  17 S17       29.66F
MULLAN PASS    CLOUDY    45  26  47 SW9       29.57F
DEER LODGE       N/A     59  18  20 S5        29.59S
EUREKA           N/A     52  36  54 MISG      29.50S
HAMILTON         N/A     48  25  40 CALM      29.51F
LIBBY            N/A     57  32  38 E5        29.48R
$$

MTZ008-052>055-200400-
SOUTHWEST MONTANA

CITY           SKY/WX    TMP DP  RH WIND       PRES   REMARKS
BOZEMAN        CLOUDY    57  17  21 S14       29.65S
DILLON         CLOUDY    61  16  17 S15G26    29.65F
W YELLOWSTONE  CLEAR     39  16  38 VRB6      29.84F
ENNIS          CLOUDY    59  10  14 SE21G28   29.75F
THREE FORKS      N/A     64  13  14 S13       29.66F
TWIN BRIDGES     N/A     63  14  15 E13       29.68
$$

MTZ009-010-012-014-046-048-049-054-200400-
EAST SLOPES AND CENTRAL MONTANA

CITY           SKY/WX    TMP DP  RH WIND       PRES   REMARKS
CUT BANK       MOCLDY    50  18  28 S6        29.47F
GREAT FALLS    CLOUDY    59  21  23 S10       29.49F
MALMSTROM AFB  CLOUDY    54  22  28 S12       29.48F
HELENA         PTCLDY    69  13  11 S16       29.53F
BOWMANS CRNR     N/A     58  16  19 S6        29.50F
CHOTEAU          N/A     54  21  28 W7        29.50F
FAIRFIELD        N/A     51  22  33 S8        29.49F
POWER            N/A     53  20  27 S13       29.48F
RAYNESFORD       N/A     65  15  14 CALM      29.52F
ULM              N/A     54  24  31 S12       29.49F
$$

MTZ011-013-016-021-045-047-050-051-200400-
NORTH CENTRAL MONTANA

CITY           SKY/WX    TMP DP  RH WIND       PRES   REMARKS
HAVRE          CLOUDY    54  26  34 E3        29.45F
LEWISTOWN      CLOUDY    59  20  22 S9        29.56F
N BAR RANCH      N/A     61  21  21 SW13G20   29.62F
CHINOOK          N/A     57  27  30 E6        29.45F
DENTON           N/A     58  22  25 S14       29.49F
GEYSER           N/A     59  18  20 SW6       29.53F
GRASS RANGE      N/A     63  22  20 S14       29.53F
JUDITH GAP       N/A     52  18  26 SE9       29.61F
WINIFRED         N/A     62  20  19 SE14      29.52F
$$

MTZ017>020-022>027-061-062-200400-
NORTHEAST MONTANA

CITY           SKY/WX    TMP DP  RH WIND       PRES   REMARKS
GLASGOW        PTCLDY    58  29  33 SE13      29.52F
JORDAN           N/A     53  28  38 S7        29.54F
SIDNEY         CLEAR     51  32  48 CALM      29.60F
WOLF POINT     CLEAR     51  27  39 N6        29.56F
MALTA          CLEAR     57  28  33 NE8       29.48F
PLENTYWOOD       N/A     57  32  38 CALM      29.58S
POPLAR           N/A     61  28  29 E6        29.56F
$$

MTZ028>42-056>058-200400-
SOUTHCENTRAL AND SOUTHEAST MONTANA

CITY           SKY/WX    TMP DP  RH WIND       PRES   REMARKS
BAKER          CLEAR     52  33  48 SE10      29.65F
BILLINGS       CLEAR     64  25  22 SW12      29.60F
LIVINGSTON     CLOUDY    64   9  11 SW23G29   29.62F
MILES CITY     CLOUDY    61  30  31 SE7       29.57F
BIG TIMBER     CLEAR     59   7  12 S6        29.66F
FORSYTH          N/A     63  28  27 CALM      29.56F
HARLOWTON        N/A     57  14  18 MISG      29.60F
LAUREL           N/A     61  23  23 SW13      29.61F
$$

REGIONAL REPORTS...DAKOTAS

CITY           SKY/WX    TMP DP  RH WIND       PRES   REMARKS
WILLISTON      CLEAR     43  34  70 CALM      29.60F
MINOT          CLEAR     58  35  42 SE6       29.63F
DICKINSON      CLOUDY    53  29  39 S12       29.65F
BEACH            N/A     52  30  43 SE9       29.67F
CROSBY           N/A     48  32  53 S12       29.59F
TIOGA            N/A     48  30  49 SE3       29.63F
WATFORD CITY     N/A     48  32  53 CALM      29.61F
BISMARCK       CLOUDY    51  40  65 SE8       29.69F
GRAND FORKS    PTCLDY    53  41  63 S7        29.70S
FARGO          CLEAR     61  45  55 SE8       29.75F
BUFFALO SD       N/A     58  25  28 SE5       29.61F
RAPID CITY     CLEAR     56  24  29 SE3       29.71F
$$

REGIONAL REPORTS...WYOMING/IDAHO/WASHINGTON

CITY           SKY/WX    TMP DP  RH WIND       PRES   REMARKS
GILLETTE       CLOUDY    66  11  11 S24       29.70F
SHERIDAN       CLEAR     53  26  35 S7        29.65F
BUFFALO WY     CLEAR     60   7  12 SW8       29.73F
CODY           CLEAR     59  14  17 SW8       29.75F
YELLOWSTONE LA   N/A     30  22  72 NW3       29.94F
IDAHO FALLS    CLEAR     55  23  28 SW5       29.76F
SALMON         CLOUDY    53  20  27 SE5       29.58F
BOISE          MOCLDY    61  14  16 CALM      29.57F
SPOKANE        LGT RAIN  51  46  83 W3        29.52S
$$

REGIONAL REPORTS...ALBERTA

CITY           SKY/WX    TMP DP  RH WIND       PRES   REMARKS
EDMONTON       CLEAR     46  36  66 SE6       29.32S
CALGARY        PTCLDY    46  36  66 SW5       29.40R
LETHBRIDGE     PTCLDY    54  28  37 S10G18    29.41F
MEDICINE HAT   MOCLDY    54  32  43 SW5       29.42S
$$

REGIONAL REPORTS...SASKATCHEWAN

CITY           SKY/WX    TMP DP  RH WIND       PRES   REMARKS
SWIFT CURRENT  CLEAR     54  25  32 S13       29.46F
REGINA         MOCLDY    52  27  37 E8        29.53F
SASKATOON      MOCLDY    52  39  62 S7        29.47S
$$




USA.gov is the U.S. government's official web portal to all federal, state and local government web resources and services.